| time (UTC) | temp F | wind direction | speed knots | gust knots | rain 1hr in | rain 24hr in | rain mn in | humidity % | barometer mb |
| 20260506000304 | 50 | 21 | 2.6 | 8.7 | 0.00 | 0.02 | 0.00 | 86 | 1009.8 |
| 20260505230805 | 50 | 66 | 1.7 | 10.4 | 0.00 | 0.09 | 0.00 | 86 | 1009.9 |
| 20260505200303 | 52 | 89 | 1.7 | 8.7 | 0.00 | 0.34 | 0.15 | 86 | 1010.5 |
| 20260505190303 | 53 | 64 | 0.9 | 6.1 | 0.00 | 0.42 | 0.15 | 88 | 1010.0 |
| 20260505180304 | 54 | 75 | 2.6 | 8.7 | 0.00 | 0.42 | 0.15 | 86 | 1009.9 |
| 20260505160804 | 54 | 79 | 2.6 | 7.0 | 0.00 | 0.42 | 0.15 | 89 | 1010.3 |
| 20260505160304 | 54 | 80 | 1.7 | 7.8 | 0.00 | 0.42 | 0.15 | 89 | 1010.4 |
| 20260505150804 | 54 | 50 | 1.7 | 4.3 | 0.00 | 0.42 | 0.15 | 90 | 1010.7 |
| 20260505150303 | 53 | 89 | 2.6 | 7.8 | 0.00 | 0.42 | 0.15 | 89 | 1010.7 |
| 20260505110303 | 50 | 87 | 1.7 | 7.8 | 0.00 | 0.47 | 0.15 | 97 | 1011.9 |
| 20260505100304 | 50 | 81 | 1.7 | 10.4 | 0.00 | 0.47 | 0.15 | 97 | 1012.0 |
| 20260505090804 | 49 | 73 | 2.6 | 7.0 | 0.01 | 0.47 | 0.15 | 97 | 1012.1 |
| 20260505080804 | 49 | 68 | 2.6 | 7.0 | 0.00 | 0.46 | 0.14 | 97 | 1012.1 |
| 20260505070803 | 49 | 67 | 1.7 | 5.2 | 0.00 | 0.46 | 0.14 | 97 | 1012.0 |
| 20260505050804 | 50 | 61 | 0.9 | 4.3 | 0.00 | 0.46 | 0.14 | 97 | 1012.0 |
| 20260505050304 | 50 | 82 | 1.7 | 7.0 | 0.00 | 0.46 | 0.14 | 97 | 1012.1 |
| 20260505040804 | 51 | 5 | 0.9 | 2.6 | 0.00 | 0.46 | 0.14 | 97 | 1011.9 |
| 20260505030804 | 52 | 45 | 1.7 | 4.3 | 0.00 | 0.46 | 0.14 | 97 | 1012.1 |
| 20260505020804 | 53 | 64 | 1.7 | 4.3 | 0.00 | 0.47 | 0.14 | 97 | 1012.2 |
| 20260505020303 | 53 | 64 | 3.5 | 10.4 | 0.00 | 0.47 | 0.14 | 97 | 1012.1 |